THORAD DELTA 1 DEB, 42602

Orbit data source: Space-Track

THORAD DELTA 1 DEB, 42602 is space debris in SSO originally from a launch on Fri, 15 Nov 1974 UTC launched from the Air Force Western Test Range (AFWTR). Debris objects in space refer to the collection of defunct objects orbiting the Earth. Examples of debris include non-operational satellites, rocket bodies, and fragments generated from explosions, collisions, or faulty payload assembly.

Loading next visibility...
Identifier
42602, 1974-089FT
Orbit
SSO
Country
Flag of USUS
Related business
Manufacturer
Unknown
Mission
Spacecraft
Bus & Motor
Unknown
Mass
Unknown
Launch date (UTC)
1974-11-15 (52 years ago)
Launch vehicle
Unknown
Launch site
Air Force Western Test Range (AFWTR)
Object type
Payload
Rocket body
Debris
Shape & HBR
Unknown shape, 0.1 m
Radar Cross Section
Medium (>0.1 m² and <1 m²)

Expand to show TLE details & history
Last TLE update: 1 week ago

TLE from 1 week ago
0 THORAD DELTA 1 DEB
1 42602U 74089FT  26157.14573969  .00001209  00000-0  11458-1 0  9999
2 42602 101.4373 116.5382 0320910 121.5958 241.6835 12.11335533968770
Epoch: 2026-06-06T03:29Z
TLE epoch observation values (Epoch: 2026-06-06T03:29:51.909Z)
Latitude
0.00007°
Longitude
169.5064°
Altitude
1,761.216 km
Speed
6.943 km/s
True Right ascension
07h 46m 09s
True Declination
0° 00' 00"
Sunlit
Object was in daylight at epoch
Visualization orbit readout
Latitude
Unknown
Longitude
Unknown
Altitude
Unknown
Speed
Unknown
Apparent Right ascension
Unknown
Apparent Declination
Unknown
Sunlit
N/A
Visualization observer readout
Local Sidereal Time
22:48:27
Azimuth
Unknown
Elevation
Unknown
Doppler factor
Unknown
Orbital elements
Apogee altitude
1,885.009 km
Perigee altitude
1,371.154 km
Semi-major axis
8,006.218 km
Eccentricity
0.03209
Inclination
101.4373°
RAAN
116.5382°
Arg. of periapsis
121.5958°
True anomaly
238.50829°
Mean anomaly
241.6835°
Eccentric anomaly
240.08972°
Mean motion
3.02972 °/min
Orbital period
118.82 mins
BSTAR
0.011458
Loading maneuver chart data...
Computing Atmospheric mass density...

Documentation

Showing up to 5 results
|